Location: Moscow
(55.7500°N, 37.5830°E)
Time: 07:17:11
(UTC+03:00)

Transit 2A - Pass Details

Date: 05 December 2021
Orbit: 591 x 967 km, 66.7° (Epoch: 17 January)

Event Time Altitude Azimuth Distance (km) Brightness Sun altitude
Exits shadow 03:03:34 18° 38° (NE) 2,194 8.7 -45.1°
Drops below altitude 10° 03:05:09 10° 45° (NE) 2,710 9.4 -44.9°
Sets 03:07:55 0° 52° (NE) 3,666 10.3 -44.6°
